AE5HO Weather Reports


time (UTC)temp
C
wind
direction
speed
KPH
gust
KPH
rain 1hr
cm
rain 24hr
cm
rain mn
cm
humidity
%
barometer
mb
20260906230247 37 185 0.0 3.2 0.00 0.00 0.00 42 1011.2
20260906225745 37 174 1.6 4.8 0.00 0.00 0.00 42 1011.3
20260906225241 37 0 0.0 3.2 0.00 0.00 0.00 43 1011.2
20260906224737 37 305 3.2 3.2 0.00 0.00 0.00 42 1011.3
20260906224233 37 249 0.0 3.2 0.00 0.00 0.00 43 1011.4
20260906223729 37 169 0.0 3.2 0.00 0.00 0.00 41 1011.3
20260906223225 37 187 0.0 3.2 0.00 0.00 0.00 42 1011.4
20260906222722 37 180 0.0 3.2 0.00 0.00 0.00 42 1011.3
20260906222221 37 165 0.0 3.2 0.00 0.00 0.00 42 1011.6
20260906221720 37 270 0.0 1.6 0.00 0.00 0.00 42 1011.4
20260906221214 37 69 1.6 4.8 0.00 0.00 0.00 42 1011.4
20260906220709 37 201 3.2 3.2 0.00 0.00 0.00 42 1011.4
20260906220205 37 204 3.2 4.8 0.00 0.00 0.00 43 1011.7
20260906215703 37 90 0.0 3.2 0.00 0.00 0.00 42 1011.4
20260906215202 37 169 0.0 3.2 0.00 0.00 0.00 43 1011.7
20260906214701 37 202 0.0 3.2 0.00 0.00 0.00 43 1011.5
20260906214156 37 212 0.0 8.0 0.00 0.00 0.00 42 1011.8
20260906213650 37 188 0.0 4.8 0.00 0.00 0.00 42 1011.6
20260906213150 37 236 3.2 3.2 0.00 0.00 0.00 43 1011.9
20260906212647 37 257 0.0 3.2 0.00 0.00 0.00 44 1012.0
20260906212144 37 195 1.6 3.2 0.00 0.00 0.00 43 1012.0
20260906211643 37 234 0.0 4.8 0.00 0.00 0.00 44 1012.0
20260906211138 37 217 3.2 6.4 0.00 0.00 0.00 43 1012.1
20260906210634 37 162 3.2 3.2 0.00 0.00 0.00 44 1012.3
20260906210133 37 262 1.6 3.2 0.00 0.00 0.00 44 1012.3
20260906205629 37 264 0.0 3.2 0.00 0.00 0.00 43 1012.3
20260906205125 37 180 0.0 3.2 0.00 0.00 0.00 45 1012.3
20260906204624 37 264 3.2 3.2 0.00 0.00 0.00 45 1012.4
20260906204120 37 215 3.2 4.8 0.00 0.00 0.00 45 1012.6
20260906203619 37 165 0.0 3.2 0.00 0.00 0.00 44 1012.4
20260906203114 37 74 0.0 3.2 0.00 0.00 0.00 45 1012.7
20260906202611 37 245 4.8 6.4 0.00 0.00 0.00 45 1012.6
20260906202111 37 285 0.0 3.2 0.00 0.00 0.00 45 1012.8
20260906201606 37 63 3.2 4.8 0.00 0.00 0.00 44 1012.9
20260906201105 37 175 3.2 6.4 0.00 0.00 0.00 46 1012.9
20260906200601 37 168 0.0 4.8 0.00 0.00 0.00 45 1012.8
20260906200057 37 176 3.2 6.4 0.00 0.00 0.00 44 1012.9
20260906195552 37 106 1.6 6.4 0.00 0.00 0.00 45 1013.1
20260906195048 37 77 0.0 4.8 0.00 0.00 0.00 45 1012.8
20260906194544 37 184 3.2 8.0 0.00 0.00 0.00 45 1013.1
20260906194040 37 263 1.6 4.8 0.00 0.00 0.00 46 1013.5
20260906193539 37 90 3.2 6.4 0.00 0.00 0.00 45 1013.3
20260906193035 37 90 0.0 0.0 0.00 0.00 0.00 46 1013.1
20260906192530 37 90 0.0 3.2 0.00 0.00 0.00 45 1013.5
20260906192029 36 180 1.6 3.2 0.00 0.00 0.00 45 1013.4
20260906191524 36 172 0.0 6.4 0.00 0.00 0.00 46 1013.5
20260906191023 36 201 0.0 4.8 0.00 0.00 0.00 48 1013.6
20260906190523 36 168 0.0 4.8 0.00 0.00 0.00 47 1013.6
20260906190018 36 248 0.0 4.8 0.00 0.00 0.00 49 1013.7
20260906185517 36 197 4.8 8.0 0.00 0.00 0.00 49 1013.6
20260906185016 36 199 4.8 4.8 0.00 0.00 0.00 49 1013.6
20260906184511 35 83 1.6 3.2 0.00 0.00 0.00 49 1013.6
20260906184007 35 257 0.0 3.2 0.00 0.00 0.00 50 1013.9
20260906183503 35 70 0.0 3.2 0.00 0.00 0.00 50 1014.0
20260906182958 36 198 0.0 3.2 0.00 0.00 0.00 50 1014.0
20260906182453 35 265 0.0 4.8 0.00 0.00 0.00 50 1013.7
20260906181949 35 200 0.0 6.4 0.00 0.00 0.00 51 1014.1
20260906181444 35 0 0.0 3.2 0.00 0.00 0.00 50 1014.3
20260906180940 35 195 0.0 3.2 0.00 0.00 0.00 51 1014.0
20260906180435 36 180 3.2 4.8 0.00 0.00 0.00 48 1014.3
20260906175932 35 200 0.0 6.4 0.00 0.00 0.00 51 1014.1
20260906175428 35 168 1.6 4.8 0.00 0.00 0.00 51 1014.4
20260906174926 35 63 0.0 3.2 0.00 0.00 0.00 52 1014.7
20260906174426 35 187 3.2 4.8 0.00 0.00 0.00 51 1014.5
20260906173921 35 264 3.2 6.4 0.00 0.00 0.00 54 1014.8
20260906173416 35 270 0.0 4.8 0.00 0.00 0.00 54 1014.8
20260906172915 35 250 0.0 3.2 0.00 0.00 0.00 52 1014.8
20260906172413 35 212 0.0 3.2 0.00 0.00 0.00 53 1015.1
20260906171907 35 251 3.2 6.4 0.00 0.00 0.00 52 1015.1
20260906171401 35 228 0.0 4.8 0.00 0.00 0.00 53 1015.2
20260906170857 35 246 0.0 4.8 0.00 0.00 0.00 54 1015.1
20260906170353 35 209 0.0 3.2 0.00 0.00 0.00 55 1015.0
20260906165850 35 180 0.0 4.8 0.00 0.00 0.00 55 1015.2
20260906165348 35 270 0.0 4.8 0.00 0.00 0.00 55 1015.2
20260906164844 34 209 1.6 3.2 0.00 0.00 0.00 57 1015.3
20260906164342 35 270 0.0 4.8 0.00 0.00 0.00 55 1015.4
20260906163839 35 188 0.0 4.8 0.00 0.00 0.00 55 1015.5
20260906163335 35 270 0.0 3.2 0.00 0.00 0.00 55 1015.3
20260906162832 35 190 3.2 4.8 0.00 0.00 0.00 55 1015.4
20260906162331 35 270 0.0 3.2 0.00 0.00 0.00 56 1015.2
20260906161827 35 191 3.2 3.2 0.00 0.00 0.00 56 1015.4
20260906161326 34 264 3.2 3.2 0.00 0.00 0.00 59 1015.4
20260906160825 33 255 0.0 6.4 0.00 0.00 0.00 60 1015.4
20260906160319 33 175 0.0 3.2 0.00 0.00 0.00 60 1015.2
20260906155817 33 180 0.0 3.2 0.00 0.00 0.00 61 1015.4
20260906155311 33 257 1.6 3.2 0.00 0.00 0.00 61 1015.3
20260906154808 34 180 0.0 3.2 0.00 0.00 0.00 61 1015.4
20260906154302 33 83 0.0 4.8 0.00 0.00 0.00 62 1015.3
20260906153801 33 194 0.0 3.2 0.00 0.00 0.00 63 1015.6
20260906153255 32 180 0.0 3.2 0.00 0.00 0.00 66 1015.1
20260906152750 33 254 0.0 1.6 0.00 0.00 0.00 65 1015.0
20260906152245 33 180 4.8 4.8 0.00 0.00 0.00 64 1015.0
20260906151744 32 260 0.0 3.2 0.00 0.00 0.00 68 1014.8
20260906151240 31 254 0.0 3.2 0.00 0.00 0.00 68 1015.0
20260906150735 31 195 0.0 1.6 0.00 0.00 0.00 69 1014.9
20260906150231 31 289 3.2 3.2 0.00 0.00 0.00 69 1014.8
20260906145729 31 255 0.0 3.2 0.00 0.00 0.00 70 1014.9
20260906145229 31 66 0.0 3.2 0.00 0.00 0.00 70 1014.8
20260906144724 31 270 0.0 1.6 0.00 0.00 0.00 70 1014.8
20260906144219 31 172 0.0 3.2 0.00 0.00 0.00 71 1014.8
20260906143718 30 263 0.0 3.2 0.00 0.00 0.00 75 1014.8
20260906143216 30 261 0.0 1.6 0.00 0.00 0.00 75 1014.7
20260906142715 29 192 0.0 1.6 0.00 0.00 0.00 75 1014.9
20260906142210 29 180 0.0 0.0 0.00 0.00 0.00 76 1014.7
20260906141709 28 187 0.0 1.6 0.00 0.00 0.00 77 1014.8
20260906141204 28 270 0.0 0.0 0.00 0.00 0.00 76 1014.8
20260906140703 28 188 0.0 1.6 0.00 0.00 0.00 77 1014.7
20260906140159 28 215 0.0 0.0 0.00 0.00 0.00 79 1015.1
20260906135655 28 173 0.0 0.0 0.00 0.00 0.00 78 1015.1
20260906135151 28 180 0.0 0.0 0.00 0.00 0.00 79 1015.0
20260906134647 27 74 0.0 1.6 0.00 0.00 0.00 80 1014.8
20260906134141 27 254 0.0 1.6 0.00 0.00 0.00 80 1015.0
20260906133638 27 187 0.0 1.6 0.00 0.00 0.00 81 1014.9
20260906133137 27 249 0.0 0.0 0.00 0.00 0.00 82 1014.9
20260906132633 27 186 0.0 0.0 0.00 0.00 0.00 82 1015.0
20260906132129 27 186 0.0 1.6 0.00 0.00 0.00 83 1015.0
20260906131624 27 180 0.0 0.0 0.00 0.00 0.00 84 1014.9
20260906131119 26 294 0.0 1.6 0.00 0.00 0.00 84 1014.9
20260906130614 26 261 0.0 1.6 0.00 0.00 0.00 85 1014.6
20260906130110 26 175 3.2 3.2 0.00 0.00 0.00 86 1014.7
20260906125607 26 180 0.0 0.0 0.00 0.00 0.00 87 1014.6
20260906125106 26 172 0.0 0.0 0.00 0.00 0.00 87 1014.8
20260906124602 25 172 0.0 0.0 0.00 0.00 0.00 87 1014.5
20260906124057 25 172 0.0 0.0 0.00 0.00 0.00 87 1014.7
20260906123556 25 172 0.0 0.0 0.00 0.00 0.00 87 1014.8
20260906123051 25 172 0.0 0.0 0.00 0.00 0.00 88 1014.6
20260906122550 25 172 0.0 0.0 0.00 0.00 0.00 88 1014.6
20260906122046 25 172 0.0 0.0 0.00 0.00 0.00 87 1014.4
20260906121542 25 172 0.0 0.0 0.00 0.00 0.00 87 1014.5
20260906121039 25 165 0.0 0.0 0.00 0.00 0.00 87 1014.4
20260906120533 25 165 0.0 0.0 0.00 0.00 0.00 87 1014.3
20260906120031 25 165 0.0 0.0 0.00 0.00 0.00 87 1014.3
20260906115531 25 195 0.0 0.0 0.00 0.00 0.00 87 1014.1
20260906115026 25 195 0.0 0.0 0.00 0.00 0.00 87 1014.2
20260906114526 25 195 0.0 0.0 0.00 0.00 0.00 86 1014.1
20260906114022 25 195 0.0 0.0 0.00 0.00 0.00 86 1014.1
20260906113520 25 195 0.0 0.0 0.00 0.00 0.00 86 1014.0
20260906113016 25 195 0.0 0.0 0.00 0.00 0.00 86 1014.2
20260906112511 25 195 0.0 0.0 0.00 0.00 0.00 86 1013.9
20260906112007 26 195 0.0 1.6 0.00 0.00 0.00 85 1014.1
20260906111507 26 180 0.0 0.0 0.00 0.00 0.00 85 1014.0
20260906111001 26 180 0.0 0.0 0.00 0.00 0.00 85 1013.9
20260906110456 26 180 0.0 0.0 0.00 0.00 0.00 85 1013.8
20260906105955 25 180 0.0 0.0 0.00 0.00 0.00 85 1014.1
20260906105451 25 180 0.0 0.0 0.00 0.00 0.00 85 1013.8
20260906104947 25 254 0.0 0.0 0.00 0.00 0.00 85 1013.8
20260906104446 25 254 0.0 0.0 0.00 0.00 0.00 85 1013.8
20260906103945 26 254 0.0 0.0 0.00 0.00 0.00 85 1013.6
20260906103443 26 254 0.0 0.0 0.00 0.00 0.00 84 1013.6
20260906102939 26 254 0.0 0.0 0.00 0.00 0.00 84 1013.8
20260906102438 26 254 0.0 1.6 0.00 0.00 0.00 84 1013.8
20260906101933 26 180 0.0 0.0 0.00 0.00 0.00 83 1013.8
20260906101428 26 180 0.0 0.0 0.00 0.00 0.00 83 1013.7
20260906100924 26 180 0.0 0.0 0.00 0.00 0.00 83 1013.5
20260906100423 26 180 0.0 0.0 0.00 0.00 0.00 83 1013.4
20260906095918 26 180 0.0 0.0 0.00 0.00 0.00 83 1013.3
20260906095414 26 180 0.0 0.0 0.00 0.00 0.00 83 1013.4
20260906094914 26 180 0.0 0.0 0.00 0.00 0.00 82 1013.5
20260906094409 26 180 0.0 0.0 0.00 0.00 0.00 82 1013.3
20260906093905 26 180 0.0 0.0 0.00 0.00 0.00 81 1013.3
20260906093401 26 180 0.0 1.6 0.00 0.00 0.00 81 1013.0
20260906092901 27 188 0.0 0.0 0.00 0.00 0.00 81 1013.4
20260906092401 27 188 0.0 0.0 0.00 0.00 0.00 80 1012.9
20260906091856 27 180 0.0 0.0 0.00 0.00 0.00 80 1013.0
20260906091352 27 180 0.0 0.0 0.00 0.00 0.00 80 1013.0
20260906090849 27 174 0.0 0.0 0.00 0.00 0.00 80 1012.8
20260906090347 27 188 0.0 0.0 0.00 0.00 0.00 79 1013.1
20260906085842 27 188 0.0 1.6 0.00 0.00 0.00 79 1013.1
20260906085341 27 185 0.0 3.2 0.00 0.00 0.00 79 1013.0
20260906084836 27 262 0.0 0.0 0.00 0.00 0.00 79 1013.0
20260906084337 27 195 0.0 1.6 0.00 0.00 0.00 79 1013.0
20260906083831 27 173 0.0 0.0 0.00 0.00 0.00 79 1013.3
20260906083327 27 188 0.0 1.6 0.00 0.00 0.00 79 1012.8
20260906082826 27 263 0.0 1.6 0.00 0.00 0.00 78 1013.1
20260906082321 27 270 0.0 3.2 0.00 0.00 0.00 78 1012.8
20260906081817 27 180 0.0 0.0 0.00 0.00 0.00 79 1012.6
20260906081313 27 203 0.0 1.6 0.00 0.00 0.00 78 1012.7
20260906080809 27 180 0.0 3.2 0.00 0.00 0.00 79 1012.9
20260906080305 27 194 0.0 0.0 0.00 0.00 0.00 78 1012.9
20260906075804 27 185 0.0 3.2 0.00 0.00 0.00 79 1013.0
20260906075306 27 172 1.6 1.6 0.00 0.00 0.00 79 1012.8
20260906074759 27 180 0.0 1.6 0.00 0.00 0.00 79 1013.1
20260906074259 27 188 0.0 1.6 0.00 0.00 0.00 79 1013.0
20260906073758 27 180 0.0 1.6 0.00 0.00 0.00 78 1013.1
20260906073253 27 254 1.6 1.6 0.00 0.00 0.00 78 1013.1
20260906072749 27 180 0.0 0.0 0.00 0.00 0.00 78 1013.3
20260906072244 27 180 0.0 0.0 0.00 0.00 0.00 77 1013.1
20260906071741 28 180 0.0 0.0 0.00 0.00 0.00 77 1013.4
20260906071240 28 180 0.0 1.6 0.00 0.00 0.00 77 1013.0
20260906070737 28 257 0.0 0.0 0.00 0.00 0.00 76 1013.3
20260906070233 28 257 0.0 1.6 0.00 0.00 0.00 76 1013.4
20260906065732 28 195 0.0 0.0 0.00 0.00 0.00 75 1013.5
20260906065227 28 180 0.0 0.0 0.00 0.00 0.00 75 1013.4
20260906064723 28 180 0.0 0.0 0.00 0.00 0.00 75 1013.4
20260906064218 28 188 0.0 1.6 0.00 0.00 0.00 75 1013.3
20260906063713 28 180 0.0 0.0 0.00 0.00 0.00 75 1013.4
20260906063209 28 188 0.0 0.0 0.00 0.00 0.00 76 1013.5
20260906062705 28 180 0.0 0.0 0.00 0.00 0.00 76 1013.1
20260906062203 28 180 0.0 0.0 0.00 0.00 0.00 77 1013.3
20260906061659 28 188 0.0 1.6 0.00 0.00 0.00 78 1013.4
20260906061155 28 180 0.0 0.0 0.00 0.00 0.00 75 1013.5
20260906060651 28 180 0.0 0.0 0.00 0.00 0.00 73 1013.6
20260906060148 29 180 0.0 0.0 0.00 0.00 0.00 71 1013.4
20260906055643 28 195 0.0 0.0 0.00 0.00 0.00 70 1013.7
20260906055138 28 195 0.0 0.0 0.00 0.00 0.00 70 1013.3
20260906054634 29 195 0.0 0.0 0.00 0.00 0.00 70 1013.0
20260906054128 29 195 0.0 0.0 0.00 0.00 0.00 70 1013.4
20260906053625 29 195 0.0 0.0 0.00 0.00 0.00 69 1013.5
20260906053120 29 195 0.0 0.0 0.00 0.00 0.00 69 1013.4
20260906052616 30 249 0.0 0.0 0.00 0.00 0.00 69 1013.4
20260906052112 30 215 0.0 1.6 0.00 0.00 0.00 68 1013.6
20260906051608 30 270 0.0 1.6 0.00 0.00 0.00 68 1013.4
20260906051103 30 254 0.0 0.0 0.00 0.00 0.00 68 1013.3
20260906050558 30 254 0.0 0.0 0.00 0.00 0.00 67 1013.8
20260906050054 30 255 0.0 1.6 0.00 0.00 0.00 67 1013.4
20260906045551 30 180 0.0 0.0 0.00 0.00 0.00 67 1013.6
20260906045047 30 215 0.0 1.6 0.00 0.00 0.00 67 1013.6
20260906044543 30 195 0.0 0.0 0.00 0.00 0.00 67 1013.3
20260906044038 30 194 0.0 1.6 0.00 0.00 0.00 67 1013.3
20260906043533 30 172 0.0 1.6 0.00 0.00 0.00 66 1013.4
20260906043030 30 186 0.0 0.0 0.00 0.00 0.00 65 1013.3
20260906042528 30 186 0.0 0.0 0.00 0.00 0.00 65 1013.3
20260906042023 30 186 0.0 1.6 0.00 0.00 0.00 65 1013.3
20260906041520 30 195 0.0 1.6 0.00 0.00 0.00 64 1013.0
20260906041019 31 279 0.0 1.6 0.00 0.00 0.00 64 1013.1
20260906040514 31 270 0.0 0.0 0.00 0.00 0.00 63 1013.3
20260906040010 31 5 0.0 3.2 0.00 0.00 0.00 63 1013.1
20260906035505 31 203 1.6 1.6 0.00 0.00 0.00 63 1013.3
20260906035001 31 180 0.0 3.2 0.00 0.00 0.00 63 1013.4
20260906034500 31 279 1.6 3.2 0.00 0.00 0.00 62 1013.3
20260906033956 31 203 0.0 3.2 0.00 0.00 0.00 61 1013.3
20260906033456 31 191 0.0 3.2 0.00 0.00 0.00 61 1013.1
20260906032952 31 188 0.0 3.2 0.00 0.00 0.00 61 1013.0
20260906032449 31 270 0.0 0.0 0.00 0.00 0.00 61 1013.3
20260906031948 31 267 4.8 4.8 0.00 0.00 0.00 60 1013.3
20260906031444 31 194 0.0 3.2 0.00 0.00 0.00 60 1013.5
20260906030939 31 190 0.0 3.2 0.00 0.00 0.00 61 1013.5
20260906030433 31 203 0.0 3.2 0.00 0.00 0.00 61 1013.4
20260906025928 31 188 0.0 1.6 0.00 0.00 0.00 61 1013.4
20260906025422 31 186 1.6 4.8 0.00 0.00 0.00 60 1013.4
20260906024921 31 180 0.0 1.6 0.00 0.00 0.00 60 1013.3
20260906024420 31 194 0.0 1.6 0.00 0.00 0.00 60 1013.5
20260906023916 31 188 3.2 3.2 0.00 0.00 0.00 59 1013.0
20260906023412 31 180 0.0 3.2 0.00 0.00 0.00 59 1013.3
20260906022912 31 203 1.6 4.8 0.00 0.00 0.00 59 1012.9
20260906022407 31 195 0.0 3.2 0.00 0.00 0.00 59 1012.9
20260906021902 31 255 0.0 4.8 0.00 0.00 0.00 58 1012.7
20260906021403 31 188 0.0 3.2 0.00 0.00 0.00 58 1012.5
20260906020857 32 198 0.0 4.8 0.00 0.00 0.00 58 1012.7
20260906020357 32 180 0.0 3.2 0.00 0.00 0.00 59 1012.5
20260906015851 32 180 0.0 1.6 0.00 0.00 0.00 59 1012.5
20260906015351 32 206 0.0 3.2 0.00 0.00 0.00 58 1012.6
20260906014851 32 258 0.0 3.2 0.00 0.00 0.00 58 1012.2
20260906014351 32 184 3.2 6.4 0.00 0.00 0.00 58 1012.1
20260906013847 32 63 0.0 4.8 0.00 0.00 0.00 56 1012.1
20260906013342 33 191 0.0 3.2 0.00 0.00 0.00 56 1012.1
20260906012838 33 183 4.8 4.8 0.00 0.00 0.00 54 1011.9
20260906012333 33 68 3.2 4.8 0.00 0.00 0.00 53 1011.8
20260906011832 33 185 3.2 4.8 0.00 0.00 0.00 52 1011.4
20260906011327 34 156 8.0 8.0 0.00 0.00 0.00 50 1011.5
20260906010823 34 180 0.0 0.0 0.00 0.00 0.00 48 1011.4
20260906010319 34 188 0.0 3.2 0.00 0.00 0.00 47 1011.3
20260906005814 35 180 0.0 3.2 0.00 0.00 0.00 48 1011.2
20260906005313 35 209 0.0 4.8 0.00 0.00 0.00 47 1011.5
20260906004812 35 157 3.2 3.2 0.00 0.00 0.00 47 1011.3
20260906004312 35 188 0.0 1.6 0.00 0.00 0.00 46 1011.5
20260906003808 35 172 0.0 1.6 0.00 0.00 0.00 46 1011.3
20260906003303 35 180 0.0 1.6 0.00 0.00 0.00 45 1011.2
20260906002759 36 195 0.0 0.0 0.00 0.00 0.00 46 1011.4
20260906002257 36 126 0.0 4.8 0.00 0.00 0.00 44 1011.2
20260906001753 36 187 1.6 3.2 0.00 0.00 0.00 43 1011.3
20260906001248 36 71 3.2 3.2 0.00 0.00 0.00 43 1011.2
20260906000744 37 180 0.0 1.6 0.00 0.00 0.00 43 1011.2
20260906000244 37 261 0.0 1.6 0.00 0.00 0.00 43 1011.3
20260905235739 37 203 0.0 0.0 0.00 0.00 0.00 43 1011.2
20260905235238 37 194 0.0 1.6 0.00 0.00 0.00 42 1011.1
20260905234734 37 240 0.0 1.6 0.00 0.00 0.00 42 1010.9
20260905234229 37 255 0.0 1.6 0.00 0.00 0.00 43 1010.9
20260905233725 37 173 0.0 1.6 0.00 0.00 0.00 42 1011.1
20260905233224 37 180 0.0 1.6 0.00 0.00 0.00 42 1010.9
20260905232719 37 262 0.0 1.6 0.00 0.00 0.00 43 1011.1
20260905232214 38 270 0.0 3.2 0.00 0.00 0.00 41 1011.2
20260905231710 37 190 0.0 0.0 0.00 0.00 0.00 41 1011.1
20260905231206 37 162 3.2 4.8 0.00 0.00 0.00 40 1011.1
20260905230701 37 175 0.0 3.2 0.00 0.00 0.00 41 1011.0